GPS BIIF-12 (PRN 32)

Last updated on Jan. 23, 2021, 7:31 a.m. UTC

1 41328U 16007A   21022.48107581  .00000051  00000-0  00000+0 0  9998
2 41328  54.8419 167.7463 0046168 221.6579 137.9632  2.00568582 36345
UTC
Height (km)
Latitude
Longitude
Inclination
Orbital Period
UTC large
Height (km)
Speed (km/s)
/
Latitude / Longitude
Inclination (degrees)
Orbital Period (minutes)
Azimuth
Elevation
Range (km)
Doppler Factor
iOS Compass Heading
iOS Angle

Next 30 passes for location: Hong Kong

Rise time Rise Azimuth (degrees) Set time Set Azimuth (degrees) Duration Max altitude (degrees)

No matching passes for this satellites